星链-2093 (STARLINK-2093 )

导读

STARLINK-2093是美国太空探索技术公司(SpaceX)发射的星链(Starlink)卫星,于北京时间2021年1月20日发射入轨,属于星链计划中近地轨道卫星组网的组成部分,旨在为全球提供高速低延迟宽带互联网服务,该卫星运行在近地轨道,支撑星链系统全球覆盖能力的构建。

基本信息
目录编号:
47374
目录名称:
STARLINK-2093
国际标识:
2021-005AB
轨道中心:
EARTH
卫星名称:
星链-2093
卫星全名:
星链-2093 (STARLINK-2093 )
卫星状态:
在轨 (已飞行1971 天)
发射日期:
2021-01-20 UTC
国别 :
美国 (US)
星等 :
--
轨道信息
数据来源 国际轨道数据
星历时间: 2026-06-15T00:00:02+0800
4小时前
查看轨道信息
半长轴: 6659.957km
偏心率: 0.0007933
轨道倾角: 53.040°
近地点辐角 327.083°
升交点赤经 280.404°
平近点角 177.097°
近地点: 276.536km
远地点: 287.104km
周期: 90.150分钟
每日圈数: 15.973339
详细信息
固有亮度:
5
最大亮度:
2.5
卫星平台:
Starlink V1.0
覆盖范围:
全球
运营商:
太空探索技术公司
运营商所在国:
美国
制造商(研发单位):
太空探索技术公司
制造商所在国:
美国
使用方式:
暂无
卫星简介
星链(Starlink)计划是由太空探索技术公司(SpaceX)提出的一个巨型低轨卫星互联网星座项目,计划在2019年至2024年间在太空搭建由约1.2万颗卫星组成的“星链”网络,其中1584颗将部署在地球上空550千米处的近地轨道,并从2020年开始工作。该卫星仍在工作。
2D轨道图
3D轨道图
轨道高度分析图
轨道倾角分析图
轨道综合分析图
查看轨道综合分析图